Location: Elizabeth Ann Machol Dragonfly Observatory
(32.8132°N, 108.2740°W)
Time: 03:31:24
(UTC-06:00)

ISS - Visible Passes

Search period start: 21 March 2019 00:00
Search period end: 31 March 2019 00:00
Orbit: 406 x 411 km, 51.6° (Epoch: 21 March)

Date Brightness Start Highest point End Pass type
(mag) Time Alt. Az. Time Alt. Az. Time Alt. Az.
21 Mar -1.5 21:08:57 10° W 21:11:33 21° NW 21:12:49 17° N visible
22 Mar -2.5 20:17:17 10° WSW 20:20:23 39° NW 20:23:29 10° NNE visible
23 Mar -0.6 21:05:39 10° NW 21:06:15 10° NNW 21:06:52 10° NNW visible
24 Mar -1.0 20:12:42 10° WNW 20:14:55 17° NNW 20:17:08 10° N visible
